| time (UTC) | temp F | wind direction | speed knots | gust knots | rain 1hr in | rain 24hr in | rain mn in | humidity % | barometer mb |
| 20260502214323 | 54 | 138 | 4.3 | 5.2 | 0.00 | 0.00 | 0.00 | 93 | 1020.8 |
| 20260502213845 | 53 | 135 | 4.3 | 4.3 | 0.00 | 0.00 | 0.00 | 97 | 1020.8 |
| 20260502213408 | 53 | 135 | 4.3 | 4.3 | 0.00 | 0.00 | 0.00 | 97 | 1020.8 |
| 20260502212458 | 54 | 135 | 4.3 | 4.3 | 0.00 | 0.00 | 0.00 | 87 | 1020.8 |
| 20260502212453 | 54 | 135 | 4.3 | 4.3 | 0.00 | 0.00 | 0.00 | 87 | 1020.8 |
| 20260502211538 | 56 | 129 | 4.3 | 5.2 | 0.00 | 0.00 | 0.00 | 76 | 1020.8 |
| 20260502210623 | 56 | 132 | 4.3 | 6.1 | 0.00 | 0.00 | 0.00 | 77 | 1020.8 |
| 20260502210150 | 57 | 135 | 5.2 | 6.1 | 0.00 | 0.00 | 0.00 | 74 | 1020.9 |
| 20260502210145 | 57 | 135 | 5.2 | 6.1 | 0.00 | 0.00 | 0.00 | 74 | 1020.9 |
| 20260502205713 | 57 | 135 | 5.2 | 6.1 | 0.00 | 0.00 | 0.00 | 72 | 1021.0 |
| 20260502205708 | 57 | 135 | 5.2 | 6.1 | 0.00 | 0.00 | 0.00 | 72 | 1021.0 |
| 20260502205231 | 58 | 135 | 5.2 | 6.1 | 0.00 | 0.00 | 0.00 | 69 | 1020.9 |
| 20260502204753 | 57 | 138 | 4.3 | 5.2 | 0.00 | 0.00 | 0.00 | 75 | 1021.0 |
| 20260502204316 | 56 | 135 | 4.3 | 5.2 | 0.00 | 0.00 | 0.00 | 83 | 1021.0 |
| 20260502203838 | 55 | 132 | 4.3 | 5.2 | 0.00 | 0.00 | 0.00 | 90 | 1021.1 |
| 20260502203401 | 55 | 132 | 4.3 | 6.1 | 0.00 | 0.00 | 0.00 | 91 | 1021.1 |
| 20260502201531 | 55 | 135 | 3.5 | 4.3 | 0.00 | 0.00 | 0.00 | 89 | 1021.1 |
| 20260502200616 | 54 | 135 | 3.5 | 4.3 | 0.00 | 0.00 | 0.00 | 98 | 1021.0 |
| 20260502200139 | 54 | 135 | 3.5 | 4.3 | 0.00 | 0.00 | 0.00 | 99 | 1021.0 |
| 20260502195707 | 54 | 135 | 3.5 | 4.3 | 0.00 | 0.00 | 0.00 | 10 | 0.1 |
| 20260502195702 | 54 | 135 | 3.5 | 4.3 | 0.00 | 0.00 | 0.00 | 10 | 1021.1 |
| 20260502195230 | 54 | 135 | 3.5 | 4.3 | 0.00 | 0.00 | 0.00 | 10 | 1021.1 |
| 20260502195224 | 54 | 135 | 3.5 | 4.3 | 0.00 | 0.00 | 0.00 | 10 | 1021.1 |
| 20260502194747 | 55 | 135 | 3.5 | 4.3 | 0.00 | 0.00 | 0.00 | 99 | 1021.1 |
| 20260502194309 | 55 | 135 | 3.5 | 4.3 | 0.00 | 0.00 | 0.00 | 97 | 1021.1 |
| 20260502193832 | 55 | 135 | 3.5 | 4.3 | 0.00 | 0.00 | 0.00 | 98 | 1021.1 |
| 20260502193400 | 54 | 135 | 3.5 | 4.3 | 0.00 | 0.00 | 0.00 | 10 | 1021.1 |
| 20260502193355 | 54 | 135 | 3.5 | 4.3 | 0.00 | 0.00 | 0.00 | 10 | 1021.1 |
| 20260502192923 | 53 | 132 | 4.3 | 4.3 | 0.00 | 0.00 | 0.00 | 10 | 1021.1 |
| 20260502192917 | 53 | 132 | 4.3 | 4.3 | 0.00 | 0.00 | 0.00 | 10 | 1021.1 |
| 20260502192445 | 52 | 135 | 2.6 | 3.5 | 0.00 | 0.00 | 0.00 | 10 | 1021.0 |
| 20260502192440 | 52 | 135 | 2.6 | 3.5 | 0.00 | 0.00 | 0.00 | 10 | 1021.0 |
| 20260502191525 | 51 | 136 | 1.7 | 2.6 | 0.00 | 0.00 | 0.00 | 10 | 1021.0 |
| 20260502191048 | 50 | 136 | 1.7 | 2.6 | 0.00 | 0.00 | 0.00 | 10 | 1021.1 |
| 20260502190616 | 51 | 135 | 1.7 | 1.7 | 0.00 | 0.00 | 0.00 | 10 | 1021.1 |
| 20260502190611 | 51 | 135 | 1.7 | 1.7 | 0.00 | 0.00 | 0.00 | 10 | 1021.1 |
| 20260502185701 | 52 | 135 | 1.7 | 1.7 | 0.00 | 0.00 | 0.00 | 10 | 1021.1 |
| 20260502185656 | 52 | 135 | 1.7 | 1.7 | 0.00 | 0.00 | 0.00 | 10 | 1021.1 |
| 20260502185224 | 52 | 135 | 1.7 | 1.7 | 0.00 | 0.00 | 0.00 | 10 | 1021.0 |
| 20260502185219 | 52 | 135 | 1.7 | 1.7 | 0.00 | 0.00 | 0.00 | 10 | 1021.0 |
| 20260502184747 | 53 | 138 | 1.7 | 1.7 | 0.00 | 0.00 | 0.00 | 10 | 1021.1 |
| 20260502184741 | 53 | 138 | 1.7 | 1.7 | 0.00 | 0.00 | 0.00 | 10 | 1021.1 |
| 20260502184305 | 53 | 135 | 0.9 | 1.7 | 0.00 | 0.00 | 0.00 | 10 | 1021.0 |
| 20260502183832 | 54 | 135 | 0.9 | 1.7 | 0.00 | 0.00 | 0.00 | 10 | 1021.0 |
| 20260502183827 | 54 | 135 | 0.9 | 1.7 | 0.00 | 0.00 | 0.00 | 10 | 1021.0 |
| 20260502182440 | 56 | 132 | 0.9 | 1.7 | 0.00 | 0.00 | 0.00 | 10 | 1020.9 |
| 20260502182434 | 56 | 132 | 0.9 | 1.7 | 0.00 | 0.00 | 0.00 | 10 | 1020.9 |
| 20260502181520 | 58 | 135 | 1.7 | 1.7 | 0.00 | 0.00 | 0.00 | 10 | 1020.8 |
| 20260502180609 | 60 | 135 | 1.7 | 1.7 | 0.00 | 0.00 | 0.00 | ||
| 20260502180604 | 60 | 135 | 1.7 | 1.7 | 0.00 | 0.00 | 0.00 | 99 | 1020.8 |
| 20260502180132 | 0 | 120 | 1.7 | 0.0 | 0.00 | 0.00 | 0.00 | 94 | 1020.8 |
| 20260502180127 | 61 | 120 | 1.7 | 1.7 | 0.00 | 0.00 | 0.00 | 94 | 1020.8 |
| 20260502170115 | 70 | 135 | 0.9 | 1.7 | 0.00 | 0.00 | 0.00 | 35 | 1021.0 |
| 20260502164243 | 71 | 135 | 1.7 | 2.6 | 0.00 | 0.00 | 0.00 | 31 | 1021.2 |
| 20260502161926 | 72 | 135 | 0.9 | 2.6 | 0.00 | 0.00 | 0.00 | 27 | 1021.5 |
| 20260502161453 | 72 | 138 | 2.6 | 3.5 | 0.00 | 0.00 | 0.00 | 29 | 1021.6 |
| 20260502161448 | 72 | 138 | 2.6 | 3.5 | 0.00 | 0.00 | 0.00 | 29 | 1021.6 |
| 20260502161010 | 72 | 144 | 2.6 | 3.5 | 0.00 | 0.00 | 0.00 | 27 | 1021.7 |
| 20260502160537 | 72 | 150 | 1.7 | 1.7 | 0.00 | 0.00 | 0.00 | 29 | 1021.7 |
| 20260502160532 | 72 | 150 | 1.7 | 1.7 | 0.00 | 0.00 | 0.00 | 29 | 1021.7 |
| 20260502151914 | 77 | 123 | 0.9 | 1.7 | 0.00 | 0.00 | 0.00 | 25 | 1022.3 |
| 20260502151908 | 77 | 123 | 0.9 | 1.7 | 0.00 | 0.00 | 0.00 | 25 | 1022.3 |
| 20260502151435 | 77 | 134 | 0.9 | 1.7 | 0.00 | 0.00 | 0.00 | 24 | 1022.3 |
| 20260502130429 | 75 | 128 | 2.6 | 4.3 | 0.00 | 0.00 | 0.00 | 27 | 1023.8 |
| 20260502130423 | 75 | 128 | 2.6 | 4.3 | 0.00 | 0.00 | 0.00 | 27 | 1023.8 |
| 20260502123635 | 76 | 335 | 1.7 | 2.6 | 0.00 | 0.00 | 0.00 | 29 | 1024.2 |
| 20260502123156 | 75 | 316 | 1.7 | 3.5 | 0.00 | 0.00 | 0.00 | 30 | 1024.2 |
| 20260502123151 | 75 | 316 | 1.7 | 3.5 | 0.00 | 0.00 | 0.00 | 30 | 1024.2 |
| 20260502122717 | 75 | 139 | 2.6 | 6.1 | 0.00 | 0.00 | 0.00 | 29 | 1024.3 |
| 20260502122712 | 75 | 139 | 2.6 | 6.1 | 0.00 | 0.00 | 0.00 | 29 | 1024.3 |
| 20260502122238 | 75 | 135 | 3.5 | 7.0 | 0.00 | 0.00 | 0.00 | 26 | 1024.3 |
| 20260502122234 | 75 | 135 | 3.5 | 7.0 | 0.00 | 0.00 | 0.00 | 26 | 1024.3 |
| 20260502121759 | 76 | 63 | 1.7 | 2.6 | 0.00 | 0.00 | 0.00 | 27 | 1024.4 |
| 20260502121754 | 76 | 63 | 1.7 | 2.6 | 0.00 | 0.00 | 0.00 | 27 | 1024.4 |
| 20260502121320 | 75 | 174 | 1.7 | 3.5 | 0.00 | 0.00 | 0.00 | 28 | 1024.5 |
| 20260502121315 | 75 | 174 | 1.7 | 3.5 | 0.00 | 0.00 | 0.00 | 28 | 1024.5 |
| 20260502120841 | 76 | 57 | 1.7 | 2.6 | 0.00 | 0.00 | 0.00 | 28 | 1024.5 |
| 20260502120836 | 76 | 57 | 1.7 | 2.6 | 0.00 | 0.00 | 0.00 | 28 | 1024.5 |
| 20260502115923 | 75 | 160 | 1.7 | 2.6 | 0.00 | 0.00 | 0.00 | 29 | 1024.7 |
| 20260502115918 | 75 | 160 | 1.7 | 2.6 | 0.00 | 0.00 | 0.00 | 29 | 1024.7 |
| 20260502115445 | 75 | 160 | 1.7 | 3.5 | 0.00 | 0.00 | 0.00 | 30 | 1024.8 |
| 20260502115440 | 75 | 160 | 1.7 | 3.5 | 0.00 | 0.00 | 0.00 | 30 | 1024.8 |
| 20260502114043 | 74 | 168 | 1.7 | 2.6 | 0.00 | 0.00 | 0.00 | 33 | 1025.0 |
| 20260502113130 | 74 | 151 | 1.7 | 3.5 | 0.00 | 0.00 | 0.00 | 33 | 1025.2 |
| 20260502113125 | 74 | 151 | 1.7 | 3.5 | 0.00 | 0.00 | 0.00 | 33 | 1025.2 |
| 20260502112651 | 73 | 114 | 1.7 | 0.0 | 0.00 | 0.00 | 0.00 | 33 | 1025.2 |
| 20260502112646 | 73 | 114 | 1.7 | 4.3 | 0.00 | 0.00 | 0.00 | 33 | 1025.2 |
| 20260502111729 | 73 | 145 | 2.6 | 4.3 | 0.00 | 0.00 | 0.00 | 34 | 1025.2 |
| 20260502111250 | 73 | 132 | 2.6 | 6.1 | 0.00 | 0.00 | 0.00 | 31 | 1025.4 |
| 20260502110338 | 73 | 156 | 0.9 | 2.6 | 0.00 | 0.00 | 0.00 | 34 | 1025.4 |
| 20260502110333 | 73 | 156 | 0.9 | 2.6 | 0.00 | 0.00 | 0.00 | 34 | 1025.4 |
| 20260502105859 | 73 | 137 | 2.6 | 4.3 | 0.00 | 0.00 | 0.00 | 32 | 1025.5 |
| 20260502105854 | 73 | 137 | 2.6 | 4.3 | 0.00 | 0.00 | 0.00 | 32 | 1025.5 |
| 20260502105420 | 72 | 147 | 3.5 | 5.2 | 0.00 | 0.00 | 0.00 | 33 | 1025.5 |
| 20260502105415 | 72 | 147 | 3.5 | 5.2 | 0.00 | 0.00 | 0.00 | 33 | 1025.5 |
| 20260502104936 | 72 | 144 | 3.5 | 6.1 | 0.00 | 0.00 | 0.00 | 34 | 1025.6 |
| 20260502104503 | 72 | 142 | 2.6 | 4.3 | 0.00 | 0.00 | 0.00 | 34 | 1025.6 |
| 20260502104458 | 72 | 142 | 2.6 | 4.3 | 0.00 | 0.00 | 0.00 | 34 | 1025.6 |
| 20260502103545 | 72 | 180 | 1.7 | 2.6 | 0.00 | 0.00 | 0.00 | 36 | 1025.8 |
| 20260502103540 | 72 | 180 | 1.7 | 2.6 | 0.00 | 0.00 | 0.00 | 36 | 1025.8 |
| 20260502103106 | 71 | 136 | 3.5 | 4.3 | 0.00 | 0.00 | 0.00 | 34 | 1025.8 |
| 20260502103102 | 71 | 136 | 3.5 | 4.3 | 0.00 | 0.00 | 0.00 | 34 | 1025.8 |
| 20260502102628 | 71 | 129 | 2.6 | 4.3 | 0.00 | 0.00 | 0.00 | 35 | 1025.9 |
| 20260502102623 | 71 | 129 | 2.6 | 4.3 | 0.00 | 0.00 | 0.00 | 35 | 1025.9 |
| 20260502102149 | 71 | 144 | 2.6 | 5.2 | 0.00 | 0.00 | 0.00 | 35 | 1026.0 |
| 20260502102144 | 71 | 144 | 2.6 | 5.2 | 0.00 | 0.00 | 0.00 | 35 | 1026.0 |
| 20260502101718 | 71 | 151 | 3.5 | 6.1 | 0.00 | 0.00 | 0.00 | 36 | 1026.0 |
| 20260502101711 | 71 | 151 | 3.5 | 6.1 | 0.00 | 0.00 | 0.00 | 36 | 1026.0 |
| 20260502101706 | 71 | 151 | 3.5 | 6.1 | 0.00 | 0.00 | 0.00 | 36 | 1026.0 |
| 20260502101227 | 72 | 151 | 1.7 | 2.6 | 0.00 | 0.00 | 0.00 | 36 | 1026.1 |
| 20260502100753 | 72 | 347 | 1.7 | 1.7 | 0.00 | 0.00 | 0.00 | 35 | 1026.1 |
| 20260502100748 | 72 | 347 | 1.7 | 1.7 | 0.00 | 0.00 | 0.00 | 35 | 1026.1 |
| 20260502100309 | 71 | 150 | 1.7 | 3.5 | 0.00 | 0.00 | 0.00 | 38 | 1026.2 |
| 20260502091208 | 70 | 152 | 1.7 | 2.6 | 0.00 | 0.00 | 0.00 | 41 | 1026.8 |
| 20260502091203 | 70 | 152 | 1.7 | 2.6 | 0.00 | 0.00 | 0.00 | 41 | 1026.8 |
| 20260502090725 | 71 | 145 | 2.6 | 3.5 | 0.00 | 0.00 | 0.00 | 42 | 1026.8 |
| 20260502090247 | 71 | 128 | 1.7 | 4.3 | 0.00 | 0.00 | 0.00 | 44 | 1026.9 |
| 20260502070644 | 60 | 326 | 1.7 | 1.7 | 0.00 | 0.00 | 0.00 | 10 | 1027.5 |
| 20260502065255 | 62 | 61 | 0.9 | 1.7 | 0.00 | 0.00 | 0.00 | 10 | 1027.4 |
| 20260502065250 | 62 | 61 | 0.9 | 1.7 | 0.00 | 0.00 | 0.00 | 10 | 1027.4 |
| 20260502064812 | 61 | 61 | 0.9 | 1.7 | 0.00 | 0.00 | 0.00 | 10 | 1027.5 |
| 20260502063857 | 58 | 340 | 0.9 | 1.7 | 0.00 | 0.00 | 0.00 | 10 | 1027.5 |
| 20260502063424 | 58 | 339 | 1.7 | 1.7 | 0.00 | 0.00 | 0.00 | 10 | 1027.6 |
| 20260502063419 | 58 | 339 | 1.7 | 1.7 | 0.00 | 0.00 | 0.00 | 10 | 1027.6 |
| 20260502062026 | 57 | 141 | 0.9 | 1.7 | 0.00 | 0.00 | 0.00 | 10 | 1027.6 |
| 20260502061554 | 56 | 135 | 0.9 | 1.7 | 0.00 | 0.00 | 0.00 | 10 | 1027.5 |
| 20260502061549 | 56 | 135 | 0.9 | 1.7 | 0.00 | 0.00 | 0.00 | 10 | 1027.5 |
| 20260502060157 | 53 | 322 | 0.0 | 0.9 | 0.00 | 0.00 | 0.00 | 10 | 1027.6 |
| 20260502055724 | 52 | 0 | 0.0 | 0.9 | 0.00 | 0.00 | 0.00 | ||
| 20260502055719 | 52 | 0 | 0.0 | 0.9 | 0.00 | 0.00 | 0.00 | 10 | 1027.6 |
| 20260502055247 | 52 | 357 | 0.9 | 0.9 | 0.00 | 0.00 | 0.00 | 10 | 1027.6 |
| 20260502055242 | 52 | 357 | 0.9 | 0.9 | 0.00 | 0.00 | 0.00 | 10 | 1027.6 |
| 20260502054805 | 51 | 333 | 0.9 | 0.9 | 0.00 | 0.00 | 0.00 | 10 | 1027.6 |
| 20260502053850 | 51 | 318 | 0.9 | 1.7 | 0.00 | 0.00 | 0.00 | 10 | 1027.6 |
| 20260502053418 | 50 | 321 | 0.9 | 1.7 | 0.00 | 0.00 | 0.00 | 10 | 1027.7 |
| 20260502053413 | 50 | 321 | 0.9 | 1.7 | 0.00 | 0.00 | 0.00 | 10 | 1027.7 |
| 20260502052941 | 50 | 353 | 0.9 | 1.7 | 0.00 | 0.00 | 0.00 | 10 | 1027.6 |
| 20260502052936 | 50 | 353 | 0.9 | 1.7 | 0.00 | 0.00 | 0.00 | 10 | 1027.6 |
| 20260502052504 | 49 | 184 | 0.9 | 0.9 | 0.00 | 0.00 | 0.00 | 10 | 1027.7 |
| 20260502052458 | 49 | 184 | 0.9 | 0.9 | 0.00 | 0.00 | 0.00 | 10 | 1027.7 |
| 20260502051549 | 48 | 135 | 0.0 | 0.0 | 0.00 | 0.00 | 0.00 | 10 | 1027.7 |
| 20260502051544 | 48 | 135 | 0.0 | 0.0 | 0.00 | 0.00 | 0.00 | 10 | 1027.7 |
| 20260502051112 | 47 | 135 | 0.0 | 0.0 | 0.00 | 0.00 | 0.00 | 10 | 1027.7 |
| 20260502051107 | 47 | 135 | 0.0 | 0.0 | 0.00 | 0.00 | 0.00 | 10 | 1027.7 |
| 20260502045716 | 44 | 135 | 0.9 | 1.7 | 0.00 | 0.00 | 0.00 | 10 | 1027.6 |
| 20260502045243 | 43 | 135 | 0.9 | 0.9 | 0.00 | 0.00 | 0.00 | 10 | 1027.7 |
| 20260502045238 | 43 | 135 | 0.9 | 0.9 | 0.00 | 0.00 | 0.00 | 10 | 1027.7 |
| 20260502043852 | 41 | 187 | 0.9 | 1.7 | 0.00 | 0.00 | 0.00 | 10 | 1027.6 |
| 20260502043847 | 41 | 187 | 0.9 | 1.7 | 0.00 | 0.00 | 0.00 | 10 | 1027.6 |
| 20260502043415 | 41 | 145 | 0.9 | 1.7 | 0.00 | 0.00 | 0.00 | 10 | 1027.5 |
| 20260502043410 | 41 | 145 | 0.9 | 1.7 | 0.00 | 0.00 | 0.00 | 10 | 1027.5 |
| 20260502042938 | 40 | 135 | 1.7 | 1.7 | 0.00 | 0.00 | 0.00 | 10 | 1027.6 |
| 20260502042933 | 40 | 135 | 1.7 | 1.7 | 0.00 | 0.00 | 0.00 | 10 | 1027.6 |
| 20260502042734 | 39 | 135 | 0.9 | 1.7 | 0.00 | 0.00 | 0.00 | 10 | 1027.6 |
| 20260502042501 | 39 | 135 | 0.9 | 1.7 | 0.00 | 0.00 | 0.00 | 10 | 1027.6 |
| 20260502042456 | 39 | 135 | 0.9 | 1.7 | 0.00 | 0.00 | 0.00 | 10 | 1027.6 |
| 20260502042057 | 39 | 135 | 1.7 | 2.6 | 0.00 | 0.00 | 0.00 | 10 | 1027.5 |
| 20260502042019 | 39 | 135 | 1.7 | 2.6 | 0.00 | 0.00 | 0.00 | 10 | 1027.5 |
| 20260502041650 | 38 | 135 | 1.7 | 1.7 | 0.00 | 0.00 | 0.00 | 10 | 1.0 |
| 20260502041547 | 38 | 135 | 1.7 | 1.7 | 0.00 | 0.00 | 0.00 | 10 | 1027.5 |
| 20260502041542 | 38 | 135 | 1.7 | 1.7 | 0.00 | 0.00 | 0.00 | 10 | 1027.5 |
| 20260502041540 | 37 | 135 | 0.9 | 0.9 | 0.00 | 0.00 | 0.00 | 10 | 1027.5 |
| 20260502041109 | 37 | 135 | 0.9 | 0.9 | 0.00 | 0.00 | 0.00 | 10 | 1027.5 |
| 20260502041105 | 37 | 135 | 0.9 | 0.9 | 0.00 | 0.00 | 0.00 | 10 | 1027.5 |
| 20260502040632 | 37 | 135 | 0.9 | 1.7 | 0.00 | 0.00 | 0.00 | 10 | 1027.5 |
| 20260502040627 | 37 | 135 | 0.9 | 1.7 | 0.00 | 0.00 | 0.00 | 10 | 1027.5 |
| 20260502040151 | 37 | 138 | 0.9 | 1.7 | 0.00 | 0.00 | 0.00 | 10 | 1027.5 |
| 20260502035713 | 37 | 138 | 0.9 | 1.7 | 0.00 | 0.00 | 0.00 | 10 | 1027.4 |
| 20260502035236 | 36 | 135 | 0.9 | 1.7 | 0.00 | 0.00 | 0.00 | 10 | 1027.5 |
| 20260502034851 | 35 | 136 | 1.7 | 1.7 | 0.00 | 0.00 | 0.00 | 10 | 1027.4 |
| 20260502034804 | 35 | 136 | 1.7 | 1.7 | 0.00 | 0.00 | 0.00 | 10 | 1027.4 |
| 20260502034759 | 35 | 136 | 1.7 | 1.7 | 0.00 | 0.00 | 0.00 | 10 | 1027.4 |
| 20260502034322 | 35 | 136 | 0.9 | 1.7 | 0.00 | 0.00 | 0.00 | 10 | 1027.5 |
| 20260502033851 | 35 | 135 | 0.9 | 1.7 | 0.00 | 0.00 | 0.00 | 10 | 1027.4 |
| 20260502033845 | 35 | 135 | 0.9 | 1.7 | 0.00 | 0.00 | 0.00 | 10 | 1027.4 |
| 20260502033408 | 35 | 138 | 1.7 | 1.7 | 0.00 | 0.00 | 0.00 | 10 | 1027.5 |
| 20260502032459 | 36 | 138 | 0.9 | 1.7 | 0.00 | 0.00 | 0.00 | 10 | 1027.5 |
| 20260502032454 | 36 | 138 | 0.9 | 1.7 | 0.00 | 0.00 | 0.00 | 10 | 1027.5 |
| 20260502031545 | 36 | 147 | 0.9 | 1.7 | 0.00 | 0.00 | 0.00 | 10 | 1027.5 |
| 20260502031540 | 36 | 147 | 0.9 | 1.7 | 0.00 | 0.00 | 0.00 | 10 | 1027.5 |
| 20260502030626 | 36 | 135 | 0.9 | 1.7 | 0.00 | 0.00 | 0.00 | 10 | 1027.5 |
| 20260502025717 | 37 | 147 | 1.7 | 1.7 | 0.00 | 0.00 | 0.00 | 10 | 1027.5 |
| 20260502025712 | 37 | 147 | 1.7 | 1.7 | 0.00 | 0.00 | 0.00 | 10 | 1027.5 |
| 20260502025240 | 37 | 135 | 0.9 | 1.7 | 0.00 | 0.00 | 0.00 | 10 | 1027.5 |
| 20260502025235 | 37 | 135 | 0.9 | 1.7 | 0.00 | 0.00 | 0.00 | 10 | 1027.5 |
| 20260502023411 | 37 | 135 | 0.9 | 1.7 | 0.00 | 0.00 | 0.00 | 10 | 1027.6 |
| 20260502023407 | 37 | 135 | 0.9 | 1.7 | 0.00 | 0.00 | 0.00 | 10 | 1027.6 |
| 20260502022935 | 36 | 135 | 0.9 | 1.7 | 0.00 | 0.00 | 0.00 | 10 | 1027.6 |
| 20260502022930 | 36 | 135 | 0.9 | 1.7 | 0.00 | 0.00 | 0.00 | 10 | 1027.6 |
| 20260502022458 | 37 | 135 | 1.7 | 1.7 | 0.00 | 0.00 | 0.00 | 10 | 1027.6 |
| 20260502022452 | 37 | 135 | 1.7 | 1.7 | 0.00 | 0.00 | 0.00 | 10 | 1027.6 |
| 20260502022016 | 37 | 135 | 1.7 | 1.7 | 0.00 | 0.00 | 0.00 | 10 | 1027.6 |
| 20260502020629 | 38 | 131 | 2.6 | 2.6 | 0.00 | 0.00 | 0.00 | 10 | 1027.7 |
| 20260502020624 | 38 | 131 | 2.6 | 2.6 | 0.00 | 0.00 | 0.00 | 10 | 1027.7 |
| 20260502015715 | 38 | 135 | 1.7 | 1.7 | 0.00 | 0.00 | 0.00 | 10 | 1027.6 |
| 20260502015710 | 38 | 135 | 1.7 | 1.7 | 0.00 | 0.00 | 0.00 | 10 | 1027.6 |
| 20260502015238 | 38 | 135 | 0.9 | 1.7 | 0.00 | 0.00 | 0.00 | 10 | 1027.7 |
| 20260502015233 | 38 | 135 | 0.9 | 1.7 | 0.00 | 0.00 | 0.00 | 10 | 1027.7 |
| 20260502013405 | 38 | 135 | 1.7 | 1.7 | 0.00 | 0.00 | 0.00 | 10 | 1027.7 |
| 20260502012933 | 38 | 135 | 0.9 | 1.7 | 0.00 | 0.00 | 0.00 | 10 | 1027.7 |
| 20260502012928 | 38 | 135 | 0.9 | 1.7 | 0.00 | 0.00 | 0.00 | 10 | 1027.7 |
| 20260502012014 | 38 | 123 | 1.7 | 1.7 | 0.00 | 0.00 | 0.00 | 10 | 1027.7 |
| 20260502011100 | 37 | 135 | 0.9 | 1.7 | 0.00 | 0.00 | 0.00 | 10 | 1027.7 |
| 20260502010628 | 37 | 135 | 0.9 | 1.7 | 0.00 | 0.00 | 0.00 | 10 | 1027.7 |
| 20260502010622 | 37 | 135 | 0.9 | 1.7 | 0.00 | 0.00 | 0.00 | 10 | 1027.7 |
| 20260502005708 | 37 | 135 | 0.9 | 1.7 | 0.00 | 0.00 | 0.00 | 10 | 1027.7 |
| 20260502005237 | 37 | 135 | 0.9 | 1.7 | 0.00 | 0.00 | 0.00 | 10 | 1027.7 |
| 20260502005231 | 37 | 135 | 0.9 | 1.7 | 0.00 | 0.00 | 0.00 | 10 | 1027.7 |
| 20260502004754 | 37 | 138 | 1.7 | 1.7 | 0.00 | 0.00 | 0.00 | 10 | 1027.7 |
| 20260502004322 | 38 | 135 | 0.9 | 1.7 | 0.00 | 0.00 | 0.00 | 10 | 1027.7 |
| 20260502004317 | 38 | 135 | 0.9 | 1.7 | 0.00 | 0.00 | 0.00 | 10 | 1027.7 |
| 20260502003840 | 39 | 135 | 0.9 | 1.7 | 0.00 | 0.00 | 0.00 | 10 | 1027.8 |
| 20260502002454 | 39 | 135 | 0.0 | 0.0 | 0.00 | 0.00 | 0.00 | 10 | 1027.8 |
| 20260502002449 | 39 | 135 | 0.0 | 0.0 | 0.00 | 0.00 | 0.00 | 10 | 1027.8 |
| 20260502002012 | 40 | 135 | 0.0 | 0.0 | 0.00 | 0.00 | 0.00 | 10 | 1027.8 |
| 20260502001535 | 40 | 135 | 0.9 | 0.9 | 0.00 | 0.00 | 0.00 | 10 | 1027.8 |
| 20260502001103 | 40 | 135 | 0.9 | 0.9 | 0.00 | 0.00 | 0.00 | 10 | 1027.8 |
| 20260502001058 | 40 | 135 | 0.9 | 0.9 | 0.00 | 0.00 | 0.00 | 10 | 1027.8 |
| 20260502000626 | 40 | 135 | 0.9 | 0.9 | 0.00 | 0.00 | 0.00 | 10 | 1027.7 |
| 20260502000621 | 40 | 135 | 0.9 | 0.9 | 0.00 | 0.00 | 0.00 | 10 | 1027.7 |
| 20260502000149 | 40 | 135 | 0.9 | 1.7 | 0.00 | 0.00 | 0.00 | 10 | 1027.7 |
| 20260502000144 | 40 | 135 | 0.9 | 1.7 | 0.00 | 0.00 | 0.00 | 10 | 1027.7 |
| 20260501235707 | 40 | 135 | 0.9 | 1.7 | 0.00 | 0.00 | 0.00 | 10 | 1027.7 |
| 20260501235235 | 41 | 164 | 0.9 | 1.7 | 0.00 | 0.00 | 0.00 | 10 | 1027.8 |
| 20260501235229 | 41 | 164 | 0.9 | 1.7 | 0.00 | 0.00 | 0.00 | 10 | 1027.8 |
| 20260501234752 | 41 | 179 | 0.9 | 1.7 | 0.00 | 0.00 | 0.00 | 10 | 1027.7 |
| 20260501234320 | 42 | 135 | 0.9 | 1.7 | 0.00 | 0.00 | 0.00 | 10 | 1.0 |
| 20260501234315 | 42 | 135 | 0.9 | 1.7 | 0.00 | 0.00 | 0.00 | 10 | 1027.7 |
| 20260501233843 | 43 | 135 | 1.7 | 1.7 | 0.00 | 0.00 | 0.00 | 10 | 1027.7 |
| 20260501233838 | 43 | 135 | 1.7 | 1.7 | 0.00 | 0.00 | 0.00 | 10 | 1027.7 |
| 20260501232929 | 44 | 135 | 0.9 | 1.7 | 0.00 | 0.00 | 0.00 | 10 | 1027.7 |
| 20260501232924 | 44 | 135 | 0.9 | 1.7 | 0.00 | 0.00 | 0.00 | 10 | 1027.7 |
| 20260501232447 | 43 | 135 | 1.7 | 1.7 | 0.00 | 0.00 | 0.00 | 10 | 1027.8 |
| 20260501232010 | 43 | 135 | 0.9 | 1.7 | 0.00 | 0.00 | 0.00 | 10 | 1027.8 |
| 20260501231055 | 43 | 164 | 1.7 | 1.7 | 0.00 | 0.00 | 0.00 | 10 | 1027.9 |
| 20260501230624 | 43 | 197 | 0.9 | 1.7 | 0.00 | 0.00 | 0.00 | 10 | 1027.9 |
| 20260501230618 | 43 | 197 | 0.9 | 1.7 | 0.00 | 0.00 | 0.00 | 10 | 1027.9 |
| 20260501230147 | 44 | 161 | 0.9 | 1.7 | 0.00 | 0.00 | 0.00 | 10 | 1027.8 |
| 20260501225709 | 45 | 135 | 1.7 | 2.6 | 0.00 | 0.00 | 0.00 | 10 | 1027.8 |
| 20260501225704 | 45 | 135 | 1.7 | 2.6 | 0.00 | 0.00 | 0.00 | 10 | 1027.8 |
| 20260501225232 | 45 | 135 | 1.7 | 2.6 | 0.00 | 0.00 | 0.00 | 10 | 1027.8 |
| 20260501225227 | 45 | 135 | 1.7 | 2.6 | 0.00 | 0.00 | 0.00 | 10 | 1027.8 |
| 20260501224750 | 45 | 135 | 2.6 | 2.6 | 0.00 | 0.00 | 0.00 | 10 | 1027.8 |
| 20260501224313 | 45 | 135 | 1.7 | 2.6 | 0.00 | 0.00 | 0.00 | 10 | 1027.9 |
| 20260501223404 | 43 | 135 | 1.7 | 2.6 | 0.00 | 0.00 | 0.00 | 10 | 1028.0 |
| 20260501223359 | 43 | 135 | 1.7 | 2.6 | 0.00 | 0.00 | 0.00 | 10 | 1028.0 |
| 20260501222927 | 42 | 136 | 1.7 | 1.7 | 0.00 | 0.00 | 0.00 | 10 | 1028.0 |
| 20260501222921 | 42 | 136 | 1.7 | 1.7 | 0.00 | 0.00 | 0.00 | 10 | 1028.0 |
| 20260501222450 | 41 | 158 | 1.7 | 1.7 | 0.00 | 0.00 | 0.00 | 10 | 1028.0 |
| 20260501222444 | 41 | 158 | 1.7 | 1.7 | 0.00 | 0.00 | 0.00 | 10 | 1028.0 |
| 20260501221530 | 42 | 135 | 0.9 | 1.7 | 0.00 | 0.00 | 0.00 | 10 | 1028.0 |
| 20260501220621 | 43 | 135 | 1.7 | 1.7 | 0.00 | 0.00 | 0.00 | 10 | 1028.1 |
| 20260501220616 | 43 | 135 | 1.7 | 1.7 | 0.00 | 0.00 | 0.00 | 10 | 1028.1 |
| 20260501215707 | 42 | 135 | 1.7 | 1.7 | 0.00 | 0.00 | 0.00 | 10 | 1028.2 |
| 20260501215702 | 42 | 135 | 1.7 | 1.7 | 0.00 | 0.00 | 0.00 | 10 | 1028.2 |
| 20260501215230 | 42 | 158 | 1.7 | 1.7 | 0.00 | 0.00 | 0.00 | 10 | 1028.2 |
| 20260501215225 | 42 | 158 | 1.7 | 1.7 | 0.00 | 0.00 | 0.00 | 10 | 1028.2 |